Nassau, Bahamas

4:41 AM EDT on August 24, 2017 (GMT -0400)
Nassau International

Weather History for MYNN - September, 2013

Change the Weather History Date:

Tuesday, September 3, 2013

  Actual Average Record
Temperature  
Mean Temperature 84 °F -  
Max Temperature 91 °F 88 °F 95 °F (2010)
Min Temperature 76 °F 74 °F 73 °F (2006)
Cooling Degree Days 18    
Growing Degree Days 34 (Base 50)    
Moisture  
Dew Point 77 °F    
Average Humidity 80    
Maximum Humidity 100    
Minimum Humidity 59    
Precipitation  
Precipitation 0.00 in 0.23 in - ()
Sea Level Pressure  
Sea Level Pressure 30.00 in    
Wind  
Wind Speed 2 mph ()    
Max Wind Speed 8 mph    
Max Gust Speed -    
Visibility 7.0 miles    
Events      
Averages and records for this station are not official NWS values.
T = Trace of Precipitation, MM = Missing Value Source: Averaged Metar Reports

Daily Weather History Graph

Daily Weather History Graph

Search for Another Location

Airport or City:

Trip Planner

Search our weather history database for the weather conditions in past years. The results will help you decide how hot, cold, wet, or windy it might be!

Date:

Astronomy

Sep. 03, 2013 Rise Set
Actual Time 6:51 AM EDT 7:26 PM EDT
Civil Twilight 6:28 AM EDT 7:49 PM EDT
Nautical Twilight 6:01 AM EDT 8:16 PM EDT
Astronomical Twilight 5:33 AM EDT 8:44 PM EDT
Moon 5:08 AM EDT (9/3) 6:09 PM EDT (9/3)
Length of Visible Light 13h 21m
Length of Day
12h 34m
Waning Crescent, 3% of the Moon is Illuminated
Sep 3
Waning Crescent
Sep 5
New
Sep 12
First Quarter
Sep 19
Full
Sep 26
Last Quarter

Hourly Weather History & Observations

Time (EDT) Temp. Heat Index Dew Point Humidity Pressure Visibility Wind Dir Wind Speed Gust Speed Precip Events Conditions
12:00 AM 80.6 °F 88.1 °F 78.8 °F 94% 30.01 in - Calm Calm - N/A   Clear
1:00 AM 80.6 °F 88.1 °F 78.8 °F 94% 30.00 in - Calm Calm - N/A   Clear
2:00 AM 80.6 °F 88.1 °F 78.8 °F 94% 29.99 in - Calm Calm - N/A   Clear
3:00 AM 80.6 °F 87.1 °F 77.0 °F 89% 29.97 in - Calm Calm - N/A   Clear
4:00 AM 80.6 °F 87.1 °F 77.0 °F 89% 29.95 in 6.2 mi ESE 3.5 mph - N/A   Partly Cloudy
5:00 AM 79 °F - 78 °F 96% 29.96 in 8 mi Calm Calm - -  
5:00 AM 78.8 °F - 78.8 °F 100% 29.95 in - Calm Calm - N/A   Clear
6:00 AM 80.6 °F 88.1 °F 78.8 °F 94% 29.96 in - Calm Calm - N/A   Clear
7:00 AM 80.6 °F 86.2 °F 75.2 °F 84% 29.97 in 6.2 mi ESE 3.5 mph - N/A   Partly Cloudy
8:00 AM 82 °F - 78 °F 83% 29.99 in 8 mi SE 3.5 mph - -   Scattered Clouds
8:00 AM 82.4 °F 90.9 °F 77.0 °F 84% 29.98 in 6.2 mi SE 3.5 mph - N/A   Mostly Cloudy
9:00 AM 86.0 °F 96.9 °F 77.0 °F 74% 29.99 in 6.2 mi ESE 3.5 mph - N/A   Mostly Cloudy
10:00 AM 87.8 °F 99.7 °F 77.0 °F 70% 30.01 in 6.2 mi East 8.1 mph - N/A   Mostly Cloudy
11:00 AM 88 °F - 77 °F 63% 30.03 in 9 mi SE 4.6 mph - -   Partly Cloudy
11:00 AM 87.8 °F 99.7 °F 77.0 °F 70% 30.02 in 6.2 mi SE 4.6 mph - N/A   Mostly Cloudy
12:00 PM 91.4 °F 102.5 °F 75.2 °F 59% 30.04 in 6.2 mi SE 6.9 mph - N/A   Mostly Cloudy
1:00 PM 91.4 °F 102.5 °F 75.2 °F 59% 30.03 in 6.2 mi SE 3.5 mph - N/A   Mostly Cloudy
2:00 PM 89 °F - 78 °F 62% 30.01 in 12 mi SE 5.8 mph - -   Mostly Cloudy
2:00 PM 89.6 °F 102.2 °F 77.0 °F 66% 30.01 in 6.2 mi SE 5.8 mph - N/A   Mostly Cloudy
3:00 PM 86.0 °F 96.9 °F 77.0 °F 74% 30.00 in 6.2 mi ENE 3.5 mph - N/A   Mostly Cloudy
4:00 PM 87.8 °F 97.6 °F 75.2 °F 66% 29.99 in 6.2 mi ESE 5.8 mph - N/A   Mostly Cloudy
5:00 PM 87.8 °F 97.6 °F 75.2 °F 66% 29.98 in 6.2 mi East 5.8 mph - N/A   Mostly Cloudy
6:00 PM 84.2 °F 92.3 °F 75.2 °F 74% 29.97 in 6.2 mi NE 6.9 mph - N/A   Scattered Clouds
8:00 PM 83 °F - 79 °F 85% 30.00 in 9 mi ENE 4.6 mph - -  
8:00 PM 82.4 °F 92.4 °F 78.8 °F 89% 30.00 in 6.2 mi ENE 4.6 mph - N/A   Mostly Cloudy
10:00 PM 82.4 °F 89.5 °F 75.2 °F 79% 30.03 in 6.2 mi East 3.5 mph - N/A   Partly Cloudy
11:00 PM 82 °F - 78 °F 85% 30.03 in 9 mi Calm Calm - -   Scattered Clouds
11:00 PM 82.4 °F 92.4 °F 78.8 °F 89% 30.03 in - North - - N/A   Partly Cloudy